Location: Newark
(22.3060°N, 114.2134°E)
Time: 12:40:02
(UTC+00:00)

ISS - Pass Details

Date: 11 April 2020
Orbit: 417 x 419 km, 51.6° (Epoch: 03 June)

Event Time Altitude Azimuth Distance (km) Brightness Sun altitude
Rises 11:21:39 0° 310° (NW) 2,352 1.3 -9.8°
Reaches altitude 10° 11:23:49 10° 302° (WNW) 1,487 0.4 -10.3°
Maximum altitude 11:26:57 37° 233° (SW) 655 -2.4 -11.0°
Drops below altitude 10° 11:30:03 10° 164° (SSE) 1,480 -1.3 -11.7°
Enters shadow 11:30:49 - 160° (SSE) 1,780 -0.9 -11.9°
